Location: Newark
(44.4156°N, 12.1972°E)
Time: 04:10:39
(UTC+00:00)

STARLINK-1088 - Pass Details

Date: 30 January 2020
Orbit: 345 x 354 km, 53.0° (Epoch: 21 February)

Event Time Altitude Azimuth Distance (km) Brightness Sun altitude
Rises 18:03:54 0° 302° (WNW) 2,187 7.5 -19.2°
Reaches altitude 10° 18:05:56 10° 301° (WNW) 1,339 6.3 -19.6°
Enters shadow 18:08:37 65° 270° (W) 396 3.0 -20.0°
